EW4931 Weather Reports


time (UTC)temp
C
wind
direction
speed
KPH
gust
KPH
rain 1hr
cm
rain 24hr
cm
rain mn
cm
humidity
%
barometer
mb
20260904123506 18 213 4.8 8.0 0.00 0.00 0.00 55 997.5
20260904122744 18 138 4.8 8.0 0.00 0.00 0.00 55 997.5
20260904122244 18 127 4.8 8.0 0.00 0.00 0.00 54 997.6
20260904121744 18 251 3.2 4.8 0.00 0.00 0.00 57 997.6
20260904121244 18 265 1.6 4.8 0.00 0.00 0.00 59 997.7
20260904120744 18 281 1.6 4.8 0.00 0.00 0.00 57 997.8
20260904120243 18 279 3.2 4.8 0.00 0.00 0.00 58 997.8
20260904115743 17 183 3.2 9.7 0.00 0.00 0.00 58 997.9
20260904115244 17 96 6.4 9.7 0.00 0.00 0.00 58 998.0
20260904114743 17 302 3.2 8.0 0.00 0.00 0.00 57 998.0
20260904114243 18 309 3.2 6.4 0.00 0.00 0.00 57 998.1
20260904113743 18 220 3.2 6.4 0.00 0.00 0.00 59 998.2
20260904113243 18 189 3.2 8.0 0.00 0.00 0.00 59 998.2
20260904112743 17 235 3.2 8.0 0.00 0.00 0.00 59 998.3
20260904112243 17 276 3.2 4.8 0.00 0.00 0.00 57 998.3
20260904112006 17 248 1.6 4.8 0.00 0.00 0.00 58 998.3
20260904111242 18 293 3.2 4.8 0.00 0.00 0.00 57 998.4
20260904110742 18 302 1.6 4.8 0.00 0.00 0.00 57 998.4
20260904110508 18 247 3.2 4.8 0.00 0.00 0.00 59 998.4
20260904105742 18 261 0.0 4.8 0.00 0.00 0.00 58 998.4
20260904105242 18 243 0.0 4.8 0.00 0.00 0.00 57 998.5
20260904104742 18 275 3.2 4.8 0.00 0.00 0.00 58 998.5
20260904104242 18 279 1.6 4.8 0.00 0.00 0.00 57 998.6
20260904103958 18 238 1.6 3.2 0.00 0.00 0.00 56 998.6
20260904103242 18 248 1.6 4.8 0.00 0.00 0.00 58 998.6
20260904102742 17 183 1.6 4.8 0.00 0.00 0.00 55 998.6
20260904102241 18 209 3.2 4.8 0.00 0.00 0.00 55 998.6
20260904101741 18 274 1.6 8.0 0.00 0.00 0.00 59 998.6
20260904101241 18 286 0.0 8.0 0.00 0.00 0.00 59 998.6
20260904100743 18 235 3.2 8.0 0.00 0.00 0.00 58 998.7
20260904100241 18 199 3.2 8.0 0.00 0.00 0.00 57 998.7
20260904095741 18 245 1.6 4.8 0.00 0.00 0.00 59 998.7
20260904095241 18 248 1.6 6.4 0.00 0.00 0.00 59 998.7
20260904094740 18 275 3.2 6.4 0.00 0.00 0.00 59 998.8
20260904094506 18 269 1.6 6.4 0.00 0.00 0.00 60 998.8
20260904093741 18 234 4.8 8.0 0.00 0.00 0.00 62 998.8
20260904093240 17 281 1.6 8.0 0.00 0.00 0.00 63 998.8
20260904092740 17 298 3.2 6.4 0.00 0.00 0.00 65 998.9
20260904092240 17 292 1.6 6.4 0.00 0.00 0.00 63 998.9
20260904091740 17 237 3.2 6.4 0.00 0.00 0.00 63 999.0
20260904091456 17 272 1.6 4.8 0.00 0.00 0.00 65 998.9
20260904090740 17 288 3.2 4.8 0.00 0.00 0.00 66 998.9
20260904090240 16 312 1.6 4.8 0.00 0.00 0.00 68 998.9
20260904085739 16 312 3.2 4.8 0.00 0.00 0.00 67 999.0
20260904085240 16 268 3.2 4.8 0.00 0.00 0.00 68 999.0
20260904084740 16 271 3.2 4.8 0.00 0.00 0.00 67 999.1
20260904084240 16 290 3.2 6.4 0.00 0.00 0.00 68 999.1
20260904083739 16 292 3.2 6.4 0.00 0.00 0.00 68 999.2
20260904083239 16 293 3.2 4.8 0.00 0.00 0.00 68 999.2
20260904082739 16 258 1.6 6.4 0.00 0.00 0.00 69 999.1
20260904082459 16 258 3.2 6.4 0.00 0.00 0.00 70 999.1
20260904081959 16 295 3.2 6.4 0.00 0.00 0.00 70 999.1
20260904081238 16 293 3.2 6.4 0.00 0.00 0.00 69 999.1
20260904080739 16 288 1.6 4.8 0.00 0.00 0.00 69 999.2
20260904080238 16 305 3.2 4.8 0.00 0.00 0.00 71 999.2
20260904075739 16 317 3.2 8.0 0.00 0.00 0.00 71 999.2
20260904075239 16 257 1.6 8.0 0.00 0.00 0.00 72 999.2
20260904074738 15 216 3.2 4.8 0.00 0.00 0.00 73 999.3
20260904074238 15 293 3.2 8.0 0.00 0.00 0.00 73 999.3
20260904073737 15 283 4.8 8.0 0.00 0.00 0.00 72 999.4
20260904073458 15 261 3.2 6.4 0.00 0.00 0.00 73 999.3
20260904072738 15 300 3.2 6.4 0.00 0.00 0.00 74 999.4
20260904072238 15 302 1.6 4.8 0.00 0.00 0.00 75 999.4
20260904071737 15 314 1.6 4.8 0.00 0.00 0.00 76 999.4
20260904071237 15 271 1.6 6.4 0.00 0.00 0.00 76 999.4
20260904070737 15 298 3.2 6.4 0.00 0.00 0.00 76 999.5
20260904070237 15 278 3.2 6.4 0.00 0.00 0.00 76 999.4
20260904065737 15 248 3.2 6.4 0.00 0.00 0.00 78 999.5
20260904065237 15 275 3.2 6.4 0.00 0.00 0.00 79 999.5
20260904064737 14 295 0.0 4.8 0.00 0.00 0.00 81 999.5
20260904064501 13 295 3.2 4.8 0.00 0.00 0.00 81 999.4
20260904063737 13 307 3.2 4.8 0.00 0.00 0.00 83 999.4
20260904063237 13 298 3.2 4.8 0.00 0.00 0.00 85 999.6
20260904062737 13 300 3.2 4.8 0.00 0.00 0.00 87 999.6
20260904062236 12 324 3.2 4.8 0.00 0.00 0.00 89 999.7
20260904061736 12 306 3.2 6.4 0.00 0.00 0.00 90 999.6
20260904061236 12 283 3.2 6.4 0.00 0.00 0.00 92 999.6
20260904060736 11 261 3.2 4.8 0.00 0.00 0.00 93 999.6
20260904060236 11 261 1.6 4.8 0.00 0.00 0.00 94 999.6
20260904055736 11 261 1.6 4.8 0.00 0.00 0.00 94 999.6
20260904055236 10 195 0.0 1.6 0.00 0.00 0.00 95 999.6
20260904054735 10 195 0.0 3.2 0.00 0.00 0.00 95 999.5
20260904054236 10 195 0.0 3.2 0.00 0.00 0.00 95 999.5
20260904053736 10 195 1.6 3.2 0.00 0.00 0.00 95 999.6
20260904053235 9 195 0.0 0.0 0.00 0.00 0.00 95 999.6
20260904052735 9 195 0.0 0.0 0.00 0.00 0.00 94 999.6
20260904052236 9 195 0.0 1.6 0.00 0.00 0.00 95 999.7
20260904051958 9 195 0.0 1.6 0.00 0.00 0.00 95 999.7
20260904051234 8 195 0.0 0.0 0.00 0.00 0.00 95 999.7
20260904050734 8 195 0.0 0.0 0.00 0.00 0.00 95 999.6
20260904050235 8 195 0.0 0.0 0.00 0.00 0.00 95 999.7
20260904045734 8 195 0.0 0.0 0.00 0.00 0.00 94 999.7
20260904045234 8 195 0.0 0.0 0.00 0.00 0.00 94 999.7
20260904044958 8 195 0.0 0.0 0.00 0.00 0.00 94 999.7
20260904044234 8 195 0.0 0.0 0.00 0.00 0.00 94 999.7
20260904043735 7 195 0.0 0.0 0.00 0.00 0.00 95 999.7
20260904043234 7 195 0.0 0.0 0.00 0.00 0.00 95 999.7
20260904042734 7 195 0.0 0.0 0.00 0.00 0.00 94 999.8
20260904042234 7 195 0.0 0.0 0.00 0.00 0.00 94 999.8
20260904041735 7 195 0.0 0.0 0.00 0.00 0.00 94 1000.0
20260904041234 7 192 0.0 0.0 0.00 0.00 0.00 94 1000.0
20260904040735 7 192 0.0 0.0 0.00 0.00 0.00 93 1000.0
20260904040233 7 192 0.0 0.0 0.00 0.00 0.00 93 1000.0
20260904035956 7 192 0.0 0.0 0.00 0.00 0.00 94 1000.0
20260904035234 7 192 0.0 0.0 0.00 0.00 0.00 94 1000.0
20260904034734 7 192 0.0 0.0 0.00 0.00 0.00 93 1000.0
20260904034233 7 192 0.0 0.0 0.00 0.00 0.00 94 999.9
20260904033953 7 192 0.0 0.0 0.00 0.00 0.00 93 1000.0
20260904033233 7 192 0.0 0.0 0.00 0.00 0.00 93 1000.0
20260904032732 7 192 0.0 0.0 0.00 0.00 0.00 93 1000.0
20260904032233 7 192 0.0 0.0 0.00 0.00 0.00 93 999.9
20260904031952 7 192 0.0 0.0 0.00 0.00 0.00 93 1000.0
20260904031233 7 192 0.0 0.0 0.00 0.00 0.00 93 1000.0
20260904030956 7 192 0.0 0.0 0.00 0.00 0.00 93 1000.1
20260904030232 7 192 0.0 0.0 0.00 0.00 0.00 93 1000.2
20260904025732 7 192 0.0 0.0 0.00 0.00 0.00 93 1000.2
20260904025232 7 192 0.0 0.0 0.00 0.00 0.00 93 1000.2
20260904024732 7 192 0.0 0.0 0.00 0.00 0.00 93 1000.3
20260904024233 7 192 0.0 0.0 0.00 0.00 0.00 93 1000.3
20260904023731 7 192 0.0 0.0 0.00 0.00 0.00 93 1000.3
20260904023232 7 192 0.0 0.0 0.00 0.00 0.00 93 1000.4
20260904022734 7 192 0.0 0.0 0.00 0.00 0.00 93 1000.4
20260904022232 7 192 0.0 0.0 0.00 0.00 0.00 93 1000.3
20260904021732 7 192 0.0 0.0 0.00 0.00 0.00 93 1000.4
20260904021233 7 192 0.0 0.0 0.00 0.00 0.00 93 1000.5
20260904020734 8 192 0.0 0.0 0.00 0.00 0.00 93 1000.6
20260904020231 8 192 0.0 0.0 0.00 0.00 0.00 93 1000.7
20260904015730 8 192 0.0 0.0 0.00 0.00 0.00 93 1000.7
20260904015452 8 192 0.0 0.0 0.00 0.00 0.00 93 1000.6
20260904014730 8 192 0.0 0.0 0.00 0.00 0.00 93 1000.7
20260904014230 8 192 0.0 0.0 0.00 0.00 0.00 93 1000.8
20260904013730 8 192 0.0 0.0 0.00 0.00 0.00 93 1000.8
20260904013230 8 192 0.0 0.0 0.00 0.00 0.00 92 1000.8
20260904012731 8 192 0.0 0.0 0.00 0.00 0.00 92 1000.8
20260904012230 8 192 0.0 0.0 0.00 0.00 0.00 93 1001.0
20260904011730 8 192 0.0 0.0 0.00 0.00 0.00 92 1001.0
20260904011230 8 192 0.0 0.0 0.00 0.00 0.00 92 1001.0
20260904010730 8 192 0.0 0.0 0.00 0.00 0.00 92 1001.1
20260904010229 8 192 0.0 0.0 0.00 0.00 0.00 92 1001.2
20260904005953 8 192 0.0 0.0 0.00 0.00 0.00 92 1001.2
20260904005230 8 192 0.0 0.0 0.00 0.00 0.00 92 1001.2
20260904004730 8 192 0.0 0.0 0.00 0.00 0.00 92 1001.4
20260904004229 8 192 0.0 0.0 0.00 0.00 0.00 92 1001.3
20260904003729 8 192 0.0 0.0 0.00 0.00 0.00 92 1001.3
20260904003229 8 192 0.0 0.0 0.00 0.00 0.00 92 1001.3
20260904002729 8 192 0.0 0.0 0.00 0.00 0.00 92 1001.4
20260904002229 8 192 0.0 0.0 0.00 0.00 0.00 92 1001.4
20260904001729 8 192 0.0 0.0 0.00 0.00 0.00 91 1001.4
20260904001453 8 192 0.0 0.0 0.00 0.00 0.00 91 1001.4
20260904000729 8 192 0.0 0.0 0.00 0.00 0.00 91 1001.4
20260904000448 8 192 0.0 0.0 0.00 0.00 0.00 91 1001.5
20260903235728 8 192 0.0 0.0 0.00 0.00 0.00 91 1001.6
20260903235449 8 192 0.0 0.0 0.00 0.00 0.00 91 1001.6
20260903234729 8 192 0.0 0.0 0.00 0.00 0.00 90 1001.6
20260903234228 8 192 0.0 0.0 0.00 0.00 0.00 90 1001.6
20260903233949 8 192 0.0 0.0 0.00 0.00 0.00 90 1001.6
20260903233227 8 192 0.0 0.0 0.00 0.00 0.00 90 1001.9
20260903232950 9 192 0.0 0.0 0.00 0.00 0.00 90 1001.9
20260903232228 9 192 0.0 0.0 0.00 0.00 0.00 90 1001.9
20260903231727 9 192 0.0 0.0 0.00 0.00 0.00 90 1001.9
20260903231227 9 192 0.0 0.0 0.00 0.00 0.00 90 1002.0
20260903230727 9 192 0.0 0.0 0.00 0.00 0.00 89 1002.0
20260903230228 9 192 0.0 0.0 0.00 0.00 0.00 89 1002.0
20260903225727 9 192 0.0 0.0 0.00 0.00 0.00 89 1002.1
20260903225447 9 192 0.0 0.0 0.00 0.00 0.00 88 1002.1
20260903224727 9 192 0.0 0.0 0.00 0.00 0.00 88 1002.3
20260903224227 9 192 0.0 0.0 0.00 0.00 0.00 88 1002.3
20260903223945 10 192 0.0 0.0 0.00 0.00 0.00 88 1002.4
20260903223227 10 192 0.0 0.0 0.00 0.00 0.00 88 1002.4
20260903222726 10 192 0.0 0.0 0.00 0.00 0.00 87 1002.4
20260903222226 10 192 0.0 0.0 0.00 0.00 0.00 86 1002.5
20260903221726 10 192 0.0 0.0 0.00 0.00 0.00 86 1002.5
20260903221227 10 192 0.0 0.0 0.00 0.00 0.00 86 1002.5
20260903220727 10 192 0.0 0.0 0.00 0.00 0.00 85 1002.5
20260903220227 10 192 0.0 0.0 0.00 0.00 0.00 86 1002.5
20260903215946 10 192 0.0 0.0 0.00 0.00 0.00 85 1002.6
20260903215447 10 192 0.0 0.0 0.00 0.00 0.00 84 1002.5
20260903214945 10 192 0.0 0.0 0.00 0.00 0.00 84 1002.6
20260903214226 10 192 0.0 0.0 0.00 0.00 0.00 84 1002.6
20260903213726 10 192 0.0 0.0 0.00 0.00 0.00 84 1002.6
20260903213226 10 192 0.0 0.0 0.00 0.00 0.00 83 1002.7
20260903212725 10 192 0.0 0.0 0.00 0.00 0.00 83 1002.7
20260903212226 10 192 0.0 0.0 0.00 0.00 0.00 83 1002.8
20260903211725 10 192 0.0 0.0 0.00 0.00 0.00 83 1002.9
20260903211225 10 192 0.0 0.0 0.00 0.00 0.00 82 1002.8
20260903210944 10 192 0.0 0.0 0.00 0.00 0.00 81 1002.9
20260903210225 10 192 0.0 0.0 0.00 0.00 0.00 81 1003.0
20260903205725 10 192 0.0 0.0 0.00 0.00 0.00 81 1003.0
20260903205226 11 192 0.0 0.0 0.00 0.00 0.00 81 1003.0
20260903204725 11 192 0.0 3.2 0.00 0.00 0.00 80 1002.9
20260903204226 11 192 0.0 3.2 0.00 0.00 0.00 81 1003.1
20260903203725 11 192 1.6 3.2 0.00 0.00 0.00 81 1003.1
20260903203226 11 192 0.0 0.0 0.00 0.00 0.00 79 1003.2
20260903202725 11 192 0.0 0.0 0.00 0.00 0.00 79 1003.3
20260903202225 11 192 0.0 0.0 0.00 0.00 0.00 78 1003.3
20260903201725 11 192 0.0 0.0 0.00 0.00 0.00 78 1003.3
20260903201442 11 192 0.0 1.6 0.00 0.00 0.00 77 1003.5
20260903200725 11 192 0.0 1.6 0.00 0.00 0.00 77 1003.4
20260903200224 11 192 0.0 0.0 0.00 0.00 0.00 76 1003.5
20260903200207 12 192 0.0 0.0 0.00 0.00 0.00 76 1003.5
20260903195225 12 192 0.0 0.0 0.00 0.00 0.00 76 1003.6
20260903194725 12 192 0.0 0.0 0.00 0.00 0.00 74 1003.7
20260903194225 12 192 0.0 1.6 0.00 0.00 0.00 74 1003.7
20260903193725 12 192 0.0 1.6 0.00 0.00 0.00 74 1003.7
20260903193449 12 192 0.0 1.6 0.00 0.00 0.00 74 1003.7
20260903192945 12 192 0.0 1.6 0.00 0.00 0.00 74 1003.8
20260903192224 12 192 0.0 1.6 0.00 0.00 0.00 74 1003.8
20260903191724 12 192 0.0 0.0 0.00 0.00 0.00 74 1003.8
20260903191224 12 192 0.0 0.0 0.00 0.00 0.00 74 1003.9
20260903190940 13 192 0.0 0.0 0.00 0.00 0.00 73 1003.9
20260903190223 13 192 0.0 0.0 0.00 0.00 0.00 74 1004.0
20260903185723 13 192 0.0 1.6 0.00 0.00 0.00 74 1004.0
20260903185224 13 192 0.0 1.6 0.00 0.00 0.00 73 1004.0
20260903184723 13 192 0.0 1.6 0.00 0.00 0.00 73 1004.0
20260903184223 13 192 0.0 1.6 0.00 0.00 0.00 72 1004.0
20260903183723 13 192 0.0 0.0 0.00 0.00 0.00 71 1004.0
20260903183223 14 192 0.0 3.2 0.00 0.00 0.00 70 1004.0
20260903182723 14 192 0.0 3.2 0.00 0.00 0.00 70 1004.2
20260903182224 14 299 0.0 0.0 0.00 0.00 0.00 69 1004.2
20260903181944 15 299 0.0 1.6 0.00 0.00 0.00 68 1004.2
20260903181444 15 299 0.0 1.6 0.00 0.00 0.00 67 1004.2
20260903180722 15 299 0.0 0.0 0.00 0.00 0.00 66 1004.2
20260903180221 15 299 0.0 0.0 0.00 0.00 0.00 65 1004.3
20260903175721 15 299 0.0 4.8 0.00 0.00 0.00 65 1004.2
20260903175221 16 300 0.0 4.8 0.00 0.00 0.00 64 1004.2
20260903174721 16 320 1.6 3.2 0.00 0.00 0.00 64 1004.3
20260903174222 16 320 1.6 8.0 0.00 0.00 0.00 63 1004.2
20260903173722 16 233 1.6 8.0 0.00 0.00 0.00 63 1004.2
20260903173443 16 320 3.2 6.4 0.00 0.00 0.00 62 1004.2
20260903172722 16 285 1.6 9.7 0.00 0.00 0.00 62 1004.2
20260903172222 16 281 3.2 9.7 0.00 0.00 0.00 61 1004.2
20260903171721 17 250 3.2 9.7 0.00 0.00 0.00 61 1004.2
20260903171221 17 312 3.2 8.0 0.00 0.00 0.00 60 1004.3
20260903170721 17 264 3.2 11.3 0.00 0.00 0.00 60 1004.3
20260903170445 17 266 4.8 11.3 0.00 0.00 0.00 60 1004.2
20260903165720 17 269 6.4 11.3 0.00 0.00 0.00 59 1004.2
20260903165221 17 283 3.2 11.3 0.00 0.00 0.00 60 1004.2
20260903164720 18 243 3.2 9.7 0.00 0.00 0.00 60 1004.1
20260903164221 18 274 6.4 9.7 0.00 0.00 0.00 59 1004.2
20260903163721 18 282 3.2 9.7 0.00 0.00 0.00 59 1004.1
20260903163221 18 258 3.2 17.7 0.00 0.00 0.00 60 1004.1
20260903162721 18 323 3.2 17.7 0.00 0.00 0.00 60 1004.2
20260903162220 18 241 3.2 19.3 0.00 0.00 0.00 59 1004.1
20260903161720 18 262 6.4 19.3 0.00 0.00 0.00 59 1004.1
20260903161220 18 283 4.8 16.1 0.00 0.00 0.00 58 1004.0
20260903160720 18 275 3.2 16.1 0.00 0.00 0.00 57 1004.1
20260903160220 18 261 6.4 9.7 0.00 0.00 0.00 56 1004.1
20260903155948 18 245 4.8 17.7 0.00 0.00 0.00 56 1004.1
20260903155221 19 293 6.4 17.7 0.00 0.00 0.00 55 1004.1
20260903154721 19 258 4.8 16.1 0.00 0.00 0.00 55 1004.2
20260903154221 18 292 4.8 9.7 0.00 0.00 0.00 54 1004.2
20260903153721 18 235 4.8 9.7 0.00 0.00 0.00 52 1004.3
20260903153220 19 296 3.2 9.7 0.00 0.00 0.00 52 1004.3
20260903152721 20 252 3.2 14.5 0.00 0.00 0.00 51 1004.3
20260903152219 20 276 3.2 19.3 0.00 0.00 0.00 49 1004.3
20260903151720 20 300 8.0 19.3 0.00 0.00 0.00 49 1004.4
20260903151220 20 250 8.0 14.5 0.00 0.00 0.00 51 1004.4
20260903150719 20 176 4.8 11.3 0.00 0.00 0.00 50 1004.4
20260903150218 20 286 4.8 14.5 0.00 0.00 0.00 50 1004.4
20260903145724 20 217 4.8 19.3 0.00 0.00 0.00 51 1004.3
20260903145720 20 275 4.8 14.5 0.00 0.00 0.00 50 1004.4
20260903144718 19 283 9.7 19.3 0.00 0.00 0.00 50 1004.3
20260903144707 20 283 9.7 14.5 0.00 0.00 0.00 49 1004.4
20260903143718 20 240 8.0 19.3 0.00 0.00 0.00 50 1004.4
20260903143218 19 276 6.4 19.3 0.00 0.00 0.00 50 1004.3
20260903142719 19 295 9.7 17.7 0.00 0.00 0.00 50 1004.5
20260903142445 19 254 6.4 11.3 0.00 0.00 0.00 51 1004.4
20260903141720 20 220 6.4 16.1 0.00 0.00 0.00 50 1004.5
20260903141219 20 314 4.8 17.7 0.00 0.00 0.00 52 1004.5
20260903140718 20 275 8.0 17.7 0.00 0.00 0.00 52 1004.6
20260903140219 19 234 8.0 14.5 0.00 0.00 0.00 53 1004.6
20260903135718 19 264 6.4 17.7 0.00 0.00 0.00 53 1004.7
20260903135218 19 296 9.7 24.1 0.00 0.00 0.00 53 1004.7
20260903134718 19 240 12.9 24.1 0.00 0.00 0.00 51 1004.8
20260903134218 19 288 12.9 17.7 0.00 0.00 0.00 52 1004.7
20260903133941 20 283 6.4 19.3 0.00 0.00 0.00 53 1004.8
20260903133219 19 275 8.0 19.3 0.00 0.00 0.00 52 1004.8
20260903132937 19 281 8.0 17.7 0.00 0.00 0.00 52 1004.8
20260903132217 19 252 6.4 17.7 0.00 0.00 0.00 53 1004.8
20260903131718 19 330 9.7 24.1 0.00 0.00 0.00 52 1004.9
20260903131413 18 228 9.7 24.1 0.00 0.00 0.00 53 1004.9
20260903130218 18 257 4.8 19.3 0.00 0.00 0.00 53 1004.9
20260903125716 18 296 8.0 19.3 0.00 0.00 0.00 53 1004.9
20260903125216 19 278 9.7 16.1 0.00 0.00 0.00 51 1004.9
20260903124716 19 243 6.4 20.9 0.00 0.00 0.00 53 1004.9
20260903124216 18 290 11.3 20.9 0.00 0.00 0.00 53 1004.9